This is the latest recevied weather packets stored in our database for station/object KM4CNW. If no packets are shown the sender has not sent any weather packets the latest 10 day(s).
| Time | Temp. | Humidity | Pressure | Rain* | Wind** | Luminosity | Snow |
|---|---|---|---|---|---|---|---|
| 1777327919 | 22.22° C | 37% | 1015.3 hPa | 0 mm | - | 234 W/m² | - |
| 1777327616 | 22.78° C | 37% | 1015.4 hPa | 0 mm | - | 252 W/m² | - |
| 1777327314 | 22.78° C | 37% | 1015.3 hPa | 0 mm | - | 266 W/m² | - |
| 1777327011 | 22.78° C | 36% | 1015.2 hPa | 0 mm | - | 295 W/m² | - |
| 1777326708 | 22.78° C | 37% | 1015.4 hPa | 0 mm | - | 313 W/m² | - |
| 1777326405 | 22.78° C | 36% | 1015.3 hPa | 0 mm | - | 337 W/m² | - |
| 1777326103 | 22.78° C | 35% | 1015.3 hPa | 0 mm | - | 360 W/m² | - |
| 1777325800 | 22.78° C | 36% | 1015.3 hPa | 0 mm | - | 380 W/m² | - |
| 1777325498 | 22.22° C | 36% | 1015.1 hPa | 0 mm | - | 399 W/m² | - |
| 1777325196 | 22.78° C | 35% | 1015.3 hPa | 0 mm | - | 421 W/m² | - |
| 1777324892 | 22.78° C | 36% | 1015.2 hPa | 0 mm | - | 439 W/m² | - |
| 1777324590 | 22.78° C | 35% | 1015.1 hPa | 0 mm | - | 456 W/m² | - |
| 1777324287 | 22.78° C | 36% | 1015.2 hPa | 0 mm | - | 476 W/m² | - |
| 1777323985 | 23.33° C | 34% | 1015.2 hPa | 0 mm | - | 496 W/m² | - |
| 1777323682 | 22.78° C | 36% | 1015.1 hPa | 0 mm | - | 515 W/m² | - |
| 1777323379 | 22.78° C | 37% | 1014.8 hPa | 0 mm | - | 532 W/m² | - |
| 1777323077 | 22.78° C | 36% | 1015 hPa | 0 mm | - | 547 W/m² | - |
| 1777322775 | 22.78° C | 35% | 1015.1 hPa | 0 mm | - | 564 W/m² | - |
| 1777322472 | 22.78° C | 37% | 1015.2 hPa | 0 mm | - | 577 W/m² | - |
| 1777322169 | 22.78° C | 36% | 1015.2 hPa | 0 mm | - | 598 W/m² | - |
| 1777321866 | 22.78° C | 36% | 1015.1 hPa | 0 mm | - | 610 W/m² | - |
| 1777321562 | 23.33° C | 36% | 1015.1 hPa | 0 mm | - | 628 W/m² | - |
| 1777321260 | 23.33° C | 35% | 1015.2 hPa | 0 mm | - | 643 W/m² | - |
| 1777320957 | 22.78° C | 37% | 1015.3 hPa | 0 mm | - | 660 W/m² | - |
| 1777320655 | 22.78° C | 37% | 1015.2 hPa | 0 mm | - | 676 W/m² | - |
* Rain latest hour (hover to see other rain measurements)
** Current wind speed in m/s (hover to see current wind gust speed)